Location: Kershaw
(34.5481°N, 80.5823°W)
Time: 17:02:02
(UTC+00:00)

Courier 1B Rocket - Pass Details

Date: 30 September 2022
Orbit: 920 x 1202 km, 28.2° (Epoch: 08 December)

Event Time Altitude Azimuth Distance (km) Brightness Sun altitude
Rises 04:42:22 0° 266° (W) 3,557 - -57.5°
Reaches altitude 10° 04:45:06 10° 259° (W) 2,605 - -57.6°
Maximum altitude 04:50:54 41° 190° (S) 1,296 - -57.8°
Drops below altitude 10° 04:56:48 10° 122° (ESE) 2,650 - -58.0°
Sets 04:59:36 0° 115° (ESE) 3,625 - -58.1°
